Regional Weather Roundup
Issued by NWS Grand Forks, ND

Home | Current Version | Previous Version | Text Only | Print | Product List | Glossary Off
Versions: 1 2 3 4 5 6 7 8 9 10 11 12 13 14 15 16 17 18 19 20 21 22 23 24 25 26 27 28 29 30 31 32 33 34 35 36 37 38 39 40 41 42 43 44 45 46 47 48 49 50

000
ASUS43 KFGF 270931
RWRFGF
PRAIRIE TO PINES  WEATHER ROUNDUP
NATIONAL WEATHER SERVICE EASTERN NORTH DAKOTA/GRAND FORKS ND
400 AM CDT SUN MAY 27 2018

 **SATELLITE DATA USED TO AUGMENT SKY COVER AT AUTOMATED STATIONS**
 *****  WEATHER ACROSS EASTERN NORTH DAKOTA  *****

CITY           SKY/WX    TMP DP  RH WIND       PRES   REMARKS
GRAND FORKS    FAIR      62  58  86 E7        29.71F
GRAND FRKS AFB FAIR      56  55  96 CALM      29.72F
GRAND FRKS NWS   N/A     67  58  72 E3        29.70F
DEVILS LAKE    FAIR      65  56  72 E6        29.73F
FARGO          FAIR      62  51  67 E5        29.72F
WAHPETON ARPT  FAIR      68  46  45 SE5       29.74S
$$

 ***** WEATHER ACROSS CENTRAL AND WESTERN NORTH DAKOTA  *****

CITY           SKY/WX    TMP DP  RH WIND       PRES   REMARKS
BISMARCK       FAIR      72  55  55 NE7       29.68R
MINOT          HVY RAIN  66  59  78 W28G38    29.83R
JAMESTOWN      TSTM      69  55  60 W17G25    29.77R
MINOT AFB      TSTM      66  61  82 W18G29    29.83R
GARRISON         N/A     62  62 100 NW23G39   29.84R
WILLISTON      LGT RAIN  62  59  90 NE8       29.85R
DICKINSON      CLOUDY    66  54  65 N20G29    29.79R
HETTINGER      FAIR      71  58  63 MISG      29.75R
$$

 *****  OTHER AIRPORT OBSERVATIONS IN OUR AREA  *****

CITY           SKY/WX    TMP DP  RH WIND       PRES   REMARKS
WALHALLA       FAIR      57  57 100 CALM      29.73F
GRAFTON AIRPOR FAIR      59  55  88 E7        29.74F
VALLEY CITY AR FAIR      66  54  63 CALM      29.75S
CANDO          FAIR      64  57  77 E10       29.73F
CAVALIER APRT    N/A     57  57 100 CALM      29.73F
GWINNER          N/A     68  57  68 CALM      29.70F
SHEYENNE NWR     N/A     67  50  54 CALM      29.95S
ROLLA          FAIR      64  59  82 MISG      29.74F
 ***** THE ABOVE OBSERVATIONS ARE NON NWS ARE NOT QUALITY
       CONTROLLED AND MAY MIS-REPORT RAIN FOR SNOW...
$$

  *****  WEATHER ACROSS NORTHERN MINNESOTA  *****

CITY           SKY/WX    TMP DP  RH WIND       PRES   REMARKS
FLAG ISLAND    FAIR      63  61  94 CALM      29.78R
WARROAD        FAIR      55  52  88 CALM      29.78S
ROSEAU         FAIR      57  54  88 CALM      29.77F
HALLOCK        FAIR      63  57  82 E9        29.73F
THF RVR FALLS  FAIR      61  57  88 NE3       29.77F FOG
BAUDETTE         N/A    N/A N/A N/A MISG      29.78R
WASKISH        FAIR      54  54 100 CALM      29.78F
CROOKSTON      FAIR      66  57  72 E7        29.74S
STEPHEN NDAWN    N/A     61  55  82 E5          N/A
GREENBUSH NDAW   N/A     57  55  94 CALM        N/A
$$
  *****  WEATHER ACROSS CENTRAL AND WEST MINNESOTA  *****

CITY           SKY/WX    TMP DP  RH WIND       PRES   REMARKS
FOSSTON        FAIR      61  54  77 SE3       29.77S
BEMIDJI        FAIR      51  51  97 CALM      29.79S
PARK RAPIDS    FAIR      56  52  86 CALM      29.78S
ELBOW LAKE     FAIR      70  53  56 SE8       29.75F
WADENA         FAIR      55  55 100 CALM      29.77F
DETROIT LAKES  FAIR      63  52  67 CALM      29.79R
MOORHEAD       FAIR      64  50  59 CALM      29.74S
FERGUS FALLS   FAIR      70  54  56 E5        29.70F
MORRIS MN      FAIR      68  55  64 E8        29.74S
STAPLES        FAIR      57  55  94 CALM      29.78F
$$
  *****  WEATHER ELSEWHERE ACROSS MINNESOTA  *****

CITY           SKY/WX    TMP DP  RH WIND       PRES   REMARKS
DULUTH         FAIR      56  53  90 W3        29.79S
INTRNTL FALLS  FAIR      51  51 100 CALM      29.78R
ELY            FAIR      54  52  94 CALM      29.80R
CLOQUET        FAIR      52  48  87 CALM      29.80R
WHEATON        FAIR      63  52  67 SE7       29.75S
BRAINERD       FAIR      57  54  89 CALM      29.79R
HIBBING        FOG       48  48 100 CALM      29.80S VSB 1/4
ALEXANDRIA     FAIR      68  55  63 SE5       29.79S
SAINT CLOUD    FAIR      58  55  90 CALM      29.77S
MINNEAPOLIS    FAIR      68  63  84 NW3       29.77S
$$

  *****  WEATHER ACROSS SOUTH DAKOTA  *****

CITY           SKY/WX    TMP DP  RH WIND       PRES   REMARKS
SIOUX FALLS    FAIR      66  56  70 CALM      29.78R
BROOKINGS      FAIR      66  53  63 SE13      29.77
WATERTOWN      FAIR      69  52  54 SE8       29.76F
HURON          FAIR      72  56  57 S12       29.72S
SISSETON         N/A     65  54  67 CALM      29.71
ABERDEEN       FAIR      71  58  63 S8        29.71R
MITCHELL       FAIR      69  58  67 SE8       29.74S
PIERRE         FAIR      73  59  61 SE10      29.66S
MOBRIDGE       FAIR      74  58  57 SE13      29.64F
RAPID CITY     FAIR      67  53  61 S6        29.69S
$$

  *****  SOME WEATHER IN NEARBY STATES *****

CITY           SKY/WX    TMP DP  RH WIND       PRES   REMARKS
GLASGOW MT     FAIR      67  57  70 N13       29.79R
GREAT FALLS MT FAIR      54  49  83 SW9       29.95S
CHEYENNE WY    FAIR      62  46  55 W5        29.89R
SCOTTSBLUFF NE FAIR      71  51  49 SE10      29.75R
OMAHA NE       FAIR      72  63  73 CALM      29.79R
DES MOINES IA  FAIR      74  68  81 CALM      29.78R
DAVENPORT IA   FAIR      67  64  90 S6        29.83R
CHICAGO IL     FAIR      73  63  70 SW7       29.81S
EAU CLAIRE WI  FAIR      59  58  96 NE3       29.78R
LA CROSSE WI   FAIR      69  66  90 SE6       29.78R
$$

  *****  SOME NATIONAL WEATHER *****

CITY           SKY/WX    TMP DP  RH WIND       PRES   REMARKS
LA GUARDIA NY  CLOUDY    71  60  68 E10       29.91R
RALEIGH NC     FAIR      71  70  96 SW10      29.97R
ATLANTA GA     MOCLDY    70  66  87 CALM      29.95R
NEW ORLEANS LA FAIR      71  71 100 CALM      29.81S
OKLAHOMA CITY  FAIR      68  66  93 S5        29.83S
ALBUQUERQUE NM MOCLDY    71  21  15 SW7       29.94R
SALT LAKE CITY MOCLDY    62  45  53 NW8       29.80F
LOS ANGELES CA FAIR      58  53  84 SW6       29.95F
BOISE ID       FAIR      53  50  89 CALM      29.93S
SEATTLE WA     FAIR      52  47  83 W5        30.24R
$$

*** WEATHER ACROSS MANITOBA...SASKATCHEWAN AND ONTARIO ***
                ***ONTARIO***

CITY           SKY/WX    TMP DP  RH WIND       PRES   REMARKS
GERALDTON      DRZL/FOG  52  50  93 VRB2      29.75F VSB 3/4
THUNDER BAY    FOG       52  52 100 SW3       29.76S VSB 1/4
SIOUX LOOKOUT  CLEAR     48  48 100 CALM      29.78R
TORONTO        PTCLDY    63  57  82 NE3       29.88R
BIG TROUT LK   CLOUDY    43  41  93 S3        29.75R
PICKLE LAKE    NOT AVBL
DRYDEN         FOG       57  55  94 W6        29.78R VSB 1/4
KENORA         CLEAR     61  59  94 N3        29.79R
$$
                *** MANITOBA***

CITY           SKY/WX    TMP DP  RH WIND       PRES   REMARKS
BRANDON        CLOUDY    64  57  77 NE6       29.82R
DAUPHIN        MOCLDY    63  57  82 N5        29.74R
ISLAND LAKE    CLOUDY    50  50 100 CALM      29.73S FOG
PILOT MOUND      N/A     61  55  82 E7          N/A
THE PAS        CLOUDY    57  55  94 S8        29.74R
THOMPSON       PTCLDY    48  46  93 S5        29.66S
WINNIPEG       MOCLDY    61  57  88 S9        29.76S
LYNN LAKE      CLEAR     50  48  93 W6        29.65R
CHURCHILL      CLOUDY    46  43  87 S8        29.54F
GILLAM         CLOUDY    50  45  81 SW7       29.65S
$$
                ***SASKATCHEWAN***

CITY           SKY/WX    TMP DP  RH WIND       PRES   REMARKS
ESTEVAN        LGT RAIN  61  59  94 E12       29.81F
KINDERSLEY     CLEAR     50  43  76 N10       29.88R
LLOYDMINSTER   LGT RAIN  52  43  71 W6        29.94R
PRINCE ALBERT  PTCLDY    52  48  87 SW6       29.84R
REGINA         CLOUDY    59  59 100 SW9       29.80S
YORKTON        CLEAR     57  57 100 SE5       29.74S
N. BATTLEFORD  PTCLDY    46  39  76 NW2       29.90R
LA RONGE       PTCLDY    52  43  71 W6        29.77R
SASKATOON      CLEAR     48  48 100 CALM      29.88R
SWIFT CURRENT  CLEAR     54  54 100 NW8       29.88F FOG
$$
NOTE: THESE ARE AUTOMATED STATIONS WITH LIMITED QUALITY CONTROL
      "FAIR" INDICATES FEW OR NO CLOUDS BELOW 12,000 FEET WITH NO
      SIGNIFICANT WEATHER AND/OR OBSTRUCTIONS TO VISIBILITY.
      SKY/WX - SKY CONDITION AND SIGNIFICANT WEATHER.
      TMP - AIR TEMPERATURE.    DP   - DEWPOINT TEMPERATURE.
      RH  - RELATIVE HUMIDITY.  PRES - PRESSURE.
      HX  - HEAT INDEX.         WCI  - WIND CHILL INDEX.
$



USA.gov is the U.S. government's official web portal to all federal, state and local government web resources and services.